Flag for U.S.A. Weather past 2 weeks in Allentown, Pennsylvania, U.S.A.

Now
62 °F

Fog.


Feels Like: 62 °F
Forecast: 61 / 87 °F
Wind: 3 mph from Northwest

Location: Lehigh Valley International Airport

Current Time: Aug 27, 2014 at 7:42:53 AM

Latest Report: Aug 27, 2014 at 6:51 AM


Visibility: 6 mi

Pressure: 30.06 "Hg

Humidity: 93%

Dew point: 60 °F

Location of AllentownLocation

Historic Weather in Allentown — Graph

°F

Allentown temperature yesterday

Maximum temperature yesterday: 85 °F (at 1:51 PM)
Minimum temperature yesterday: 58 °F (at 6:51 AM)
Average temperature yesterday: 72 °F

Past Weeks' High & Low Weather Summary

 TemperatureHumidityPressure
High85 °F (Aug 19, 2:51 PM)97% (Aug 25, 6:51 AM)30.21 "Hg (Aug 25, 6:51 AM)
Low51 °F (Aug 16, 4:51 AM)37% (Aug 16, 4:51 PM)29.70 "Hg (Aug 13, 2:51 PM)
Average70 °F70%29.98 "Hg
* Reported Aug 12 5:51 AM — Aug 27 5:51 AM, Allentown, Weather by CustomWeather, © 2014

Note: Actual official high and low records may vary slightly from our data, if they occured in-between our weather recording intervals... More about our weather records

Advertising

Allentown weather history for previous 24 hours

 ConditionsComfort  
Time TempWeatherWind HumidityBarometerVisibility
5:51 AM
Aug 27
62 °FFog.No wind90%30.05 "Hg4 mi
4:51 AM63 °FClear.3 mph90%30.04 "Hg8 mi
3:51 AM64 °FClear.No wind87%30.05 "Hg10 mi
2:51 AM64 °FClear.No wind90%30.06 "Hg8 mi
1:51 AM67 °FClear.No wind85%30.06 "Hg10 mi
12:51 AM67 °FClear.3 mph85%30.08 "Hg10 mi
11:51 PM
Aug 26
71 °FClear.6 mph76%30.08 "Hg10 mi
10:51 PM70 °FClear.3 mph73%30.09 "Hg10 mi
9:51 PM70 °FClear.3 mph73%30.10 "Hg10 mi
8:51 PM76 °FClear.No wind58%30.10 "Hg10 mi
7:51 PM79 °FSunny.3 mph50%30.08 "Hg10 mi
6:51 PM82 °FSunny.5 mph43%30.07 "Hg10 mi
5:51 PM84 °FSunny.8 mph46%30.07 "Hg10 mi
4:51 PM85 °FSunny.5 mph43%30.09 "Hg10 mi
3:51 PM85 °FPassing clouds.6 mph45%30.11 "Hg10 mi
2:51 PM85 °FScattered clouds.No wind42%30.14 "Hg10 mi
1:51 PM85 °FSunny.5 mph42%30.14 "Hg10 mi
12:51 PM83 °FSunny.No wind43%30.16 "Hg10 mi
11:51 AM82 °FSunny.3 mph49%30.17 "Hg10 mi
10:51 AM78 °FSunny.No wind60%30.18 "Hg10 mi
9:51 AM74 °FSunny.No wind69%30.17 "Hg10 mi
8:51 AM68 °FSunny.No wind82%30.19 "Hg10 mi
7:51 AM63 °FSunny.No wind90%30.18 "Hg9 mi
Weather by CustomWeather, © 2014

See weather overviewHow to use our weather pages